Weather History for KOPM - February, 2013

Change the Weather History Date:

Wednesday, February 27, 2013

  Actual Average Record
Temperature  
Mean Temperature 68 °F -  
Max Temperature 73 °F - - ()
Min Temperature 64 °F - - ()
Cooling Degree Days 4    
Growing Degree Days 18 (Base 50)    
Moisture  
Dew Point 55 °F    
Average Humidity 67    
Maximum Humidity 83    
Minimum Humidity 42    
Precipitation  
Precipitation 0.00 in - - ()
Sea Level Pressure  
Sea Level Pressure 30.01 in    
Wind  
Wind Speed 11 mph (NE)    
Max Wind Speed 17 mph    
Max Gust Speed 17 mph    
Visibility 10 miles    
Events      
Averages and records for this station are not official NWS values.
T = Trace of Precipitation, MM = Missing Value Source: NWS Daily Summary

Daily Weather History Graph

Daily Weather History Graph

Search for Another Location

Airport or City:

Astronomy

Feb. 27, 2013 Rise Set
Actual Time 6:53 AM CST 6:27 PM CST
Civil Twilight 6:29 AM CST 6:51 PM CST
Nautical Twilight 6:02 AM CST 7:18 PM CST
Astronomical Twilight 5:36 AM CST 7:45 PM CST
Moon 8:31 PM CST (2/27) 7:44 AM CST (2/27)
Length of Visible Light 12h 21m
Length of Day
11h 34m
Waning Gibbous, 96% of the Moon is Illuminated
Feb 27
Waning Gibbous
Mar 4
Last Quarter
Mar 11
New
Mar 19
First Quarter
Mar 27
Full

Hourly Weather History & Observations

Time (CST) Temp. Dew Point Humidity Pressure Visibility Wind Dir Wind Speed Gust Speed Precip Events Conditions
12:15 AM 64.4 °F 53.6 °F 68% 29.92 in 10.0 mi SSE 16.1 mph - N/A   Clear
12:35 AM 64.4 °F 51.8 °F 64% 29.92 in 10.0 mi SSE 15.0 mph - N/A   Clear
12:55 AM 64.4 °F 53.6 °F 68% 29.91 in 10.0 mi SSE 17.3 mph - N/A   Clear
1:15 AM 64.4 °F 53.6 °F 68% 29.91 in 10.0 mi South 15.0 mph - N/A   Clear
1:35 AM 64.4 °F 53.6 °F 68% 29.92 in 10.0 mi South 12.7 mph - N/A   Clear
1:55 AM 64.4 °F 53.6 °F 68% 29.91 in 10.0 mi South 13.8 mph - N/A   Clear
2:15 AM 64.4 °F 53.6 °F 68% 29.91 in 10.0 mi South 15.0 mph - N/A   Clear
2:35 AM 64.4 °F 55.4 °F 73% 29.90 in 10.0 mi South 15.0 mph - N/A   Clear
2:55 AM 64.4 °F 55.4 °F 73% 29.91 in 10.0 mi South 11.5 mph - N/A   Clear
3:15 AM 64.4 °F 55.4 °F 73% 29.90 in 10.0 mi South 11.5 mph - N/A   Clear
3:35 AM 64.4 °F 55.4 °F 73% 29.90 in 10.0 mi SSE 10.4 mph - N/A   Clear
3:55 AM 64.4 °F 55.4 °F 73% 29.90 in 10.0 mi SSE 9.2 mph - N/A   Clear
4:15 AM 64.4 °F 55.4 °F 73% 29.89 in 10.0 mi SSE 9.2 mph - N/A   Clear
4:35 AM 64.4 °F 55.4 °F 73% 29.89 in 10.0 mi SE 10.4 mph - N/A   Clear
5:35 AM 64.4 °F 55.4 °F 73% 29.91 in 10.0 mi SE 10.4 mph - N/A   Clear
6:35 AM 66.2 °F 57.2 °F 73% 29.91 in 10.0 mi SE 12.7 mph - N/A   Clear
6:55 AM 66.2 °F 57.2 °F 73% 29.92 in 10.0 mi SSE 13.8 mph - N/A   Clear
7:15 AM 66.2 °F 57.2 °F 73% 29.93 in 10.0 mi SE 12.7 mph - N/A   Clear
7:35 AM 66.2 °F 57.2 °F 73% 29.95 in 10.0 mi SE 10.4 mph - N/A   Clear
7:55 AM 66.2 °F 57.2 °F 73% 29.96 in 10.0 mi SSE 11.5 mph - N/A   Clear
8:15 AM 66.2 °F 57.2 °F 73% 29.98 in 10.0 mi SSE 9.2 mph - N/A   Clear
8:55 AM 66.2 °F 57.2 °F 73% 29.99 in 10.0 mi SSE 12.7 mph - N/A   Clear
9:15 AM 66.2 °F 57.2 °F 73% 30.01 in 10.0 mi SSE 6.9 mph - N/A   Clear
9:35 AM 66.2 °F 57.2 °F 73% 30.02 in 9.0 mi SSE 4.6 mph - N/A   Clear
9:55 AM 68.0 °F 57.2 °F 68% 30.03 in 10.0 mi Calm Calm - N/A   Clear
10:15 AM 68.0 °F 57.2 °F 68% 30.03 in 10.0 mi Calm Calm - N/A   Clear
10:35 AM 68.0 °F 57.2 °F 68% 30.04 in 10.0 mi Calm Calm - N/A   Clear
10:55 AM 68.0 °F 57.2 °F 68% 30.04 in 10.0 mi Calm Calm - N/A   Clear
11:15 AM 71.6 °F 59.0 °F 64% 30.05 in 10.0 mi Calm Calm - N/A   Clear
11:35 AM 71.6 °F 59.0 °F 64% 30.06 in 10.0 mi WNW 5.8 mph - N/A   Clear
11:55 AM 73.4 °F 59.0 °F 61% 30.05 in 10.0 mi NW 5.8 mph - N/A   Partly Cloudy
12:15 PM 73.4 °F 59.0 °F 61% 30.05 in 10.0 mi NW 11.5 mph - N/A   Partly Cloudy
12:35 PM 71.6 °F 59.0 °F 64% 30.04 in 10.0 mi NW 9.2 mph - N/A   Partly Cloudy
12:55 PM 71.6 °F 59.0 °F 64% 30.04 in 10.0 mi NW 10.4 mph - N/A   Clear
1:15 PM 68.0 °F 59.0 °F 73% 30.03 in 10.0 mi NNW 8.1 mph - N/A   Clear
1:35 PM 66.2 °F 59.0 °F 78% 30.02 in 10.0 mi North 4.6 mph - N/A   Clear
1:55 PM 66.2 °F 59.0 °F 78% 30.02 in 10.0 mi North 4.6 mph - N/A   Clear
2:35 PM 66.2 °F 59.0 °F 78% 30.03 in 10.0 mi North 6.9 mph - N/A   Clear
2:55 PM 66.2 °F 59.0 °F 78% 30.02 in 10.0 mi North 3.5 mph - N/A   Clear
3:15 PM 66.2 °F 59.0 °F 78% 30.02 in 10.0 mi NNE 5.8 mph - N/A   Clear
3:35 PM 66.2 °F 59.0 °F 78% 30.03 in 10.0 mi North 6.9 mph - N/A   Clear
3:55 PM 66.2 °F 59.0 °F 78% 30.03 in 10.0 mi North 6.9 mph - N/A   Clear
4:15 PM 64.4 °F 59.0 °F 83% 30.02 in 10.0 mi NNE 4.6 mph - N/A   Clear
4:35 PM 66.2 °F 59.0 °F 78% 30.02 in 10.0 mi NNE 5.8 mph - N/A   Clear
4:55 PM 66.2 °F 57.2 °F 73% 30.02 in 10.0 mi NNE 4.6 mph - N/A   Clear
5:15 PM 66.2 °F 57.2 °F 73% 30.03 in 10.0 mi North 4.6 mph - N/A   Clear
5:35 PM 66.2 °F 57.2 °F 73% 30.04 in 10.0 mi North 4.6 mph - N/A   Clear
5:55 PM 66.2 °F 57.2 °F 73% 30.04 in 10.0 mi North 4.6 mph - N/A   Clear
6:15 PM 66.2 °F 57.2 °F 73% 30.05 in 10.0 mi North 5.8 mph - N/A   Clear
6:35 PM 66.2 °F 57.2 °F 73% 30.06 in 10.0 mi North 6.9 mph - N/A   Clear
6:55 PM 66.2 °F 57.2 °F 73% 30.07 in 10.0 mi North 6.9 mph - N/A   Clear
7:15 PM 66.2 °F 57.2 °F 73% 30.08 in 10.0 mi North 8.1 mph - N/A   Clear
7:35 PM 66.2 °F 50.0 °F 56% 30.09 in 10.0 mi North 11.5 mph - N/A   Clear
8:15 PM 66.2 °F 46.4 °F 49% 30.12 in 10.0 mi North 11.5 mph - N/A   Clear
8:35 PM 66.2 °F 42.8 °F 43% 30.13 in 10.0 mi NNE 10.4 mph 16.1 mph N/A   Clear
8:55 PM 66.2 °F 44.6 °F 46% 30.13 in 10.0 mi North 9.2 mph 15.0 mph N/A   Clear
9:15 PM 66.2 °F 42.8 °F 43% 30.13 in 10.0 mi North 9.2 mph 17.3 mph N/A   Clear
9:35 PM 66.2 °F 44.6 °F 46% 30.14 in 10.0 mi North 9.2 mph 17.3 mph N/A   Clear
9:55 PM 66.2 °F 42.8 °F 43% 30.14 in 10.0 mi North 11.5 mph 17.3 mph N/A   Clear
10:15 PM 64.4 °F 44.6 °F 49% 30.15 in 10.0 mi North 11.5 mph - N/A   Clear
10:35 PM 64.4 °F 42.8 °F 45% 30.15 in 10.0 mi North 12.7 mph - N/A   Clear
10:55 PM 64.4 °F 41.0 °F 42% 30.16 in 10.0 mi North 11.5 mph - N/A   Clear
11:15 PM 64.4 °F 42.8 °F 45% 30.15 in 10.0 mi North 11.5 mph - N/A   Clear